Flag for South Africa Weather past 2 weeks in Durban, South Africa

Now
73 °F

Passing clouds.


Feels Like: 75 °F
Forecast: 65 / 83 °F
Wind: 8 mph from Northeast

Location: King Shaka International Airport


UV Index: 5 (Moderate)

Visibility: N/A


Pressure: 30.01 "Hg

Humidity: 74%

Dew point: 64 °F

Location of DurbanLocation

Historic Weather in Durban

°F

Durban temperature yesterday

Maximum temperature yesterday: 72 °F (at 11:00 AM)
Minimum temperature yesterday: 61 °F (at 3:00 AM)
Average temperature yesterday: 66 °F

Past Weeks' High & Low Weather Summary

 TemperatureHumidityPressure
High82 °F (Apr 13, 1:00 PM)94% (Apr 8, 3:00 AM)30.33 "Hg (Apr 8, 3:00 AM)
Low55 °F (Apr 12, 6:00 AM)47% (Apr 5, 10:00 AM)29.89 "Hg (Apr 14, 3:00 PM)
Average69 °F75%30.18 "Hg
* Reported Apr 3 5:00 PM — Apr 18 5:00 PM, Durban, Weather by CustomWeather, © 2014

Note: Actual official high and low records may vary slightly from our data, if they occured in-between our weather recording intervals... More about our weather records

Advertising

Historic Weather Conditions — Data for Previous 24 hours

 ConditionsComfort  
Time TempWeatherWind HumidityBarometerVisibility
5:00 PM
Apr 18
73 °FPassing clouds.8 mph74%30.01 "HgN/A
4:00 PM75 °FPassing clouds.10 mph69%30.01 "HgN/A
3:00 PM75 °FPassing clouds.12 mph65%29.98 "HgN/A
2:00 PM75 °FPassing clouds.9 mph65%30.01 "HgN/A
1:00 PM73 °FPassing clouds.10 mph65%30.01 "HgN/A
12:00 PM73 °FPassing clouds.8 mph69%30.04 "HgN/A
11:00 AM73 °FPassing clouds.5 mph69%30.04 "HgN/A
10:00 AM72 °FPassing clouds.6 mph69%30.07 "HgN/A
9:00 AM70 °FSunny.2 mph69%30.07 "Hg10 mi
8:00 AM68 °FSunny.1 mph69%30.07 "Hg10 mi
7:00 AM59 °FSunny.No wind88%30.04 "Hg10 mi
6:00 AM57 °FSunny.1 mph88%30.04 "Hg10 mi
5:00 AM59 °FClear.3 mph88%30.04 "Hg10 mi
4:00 AM59 °FPassing clouds.2 mph88%30.04 "HgN/A
3:00 AM61 °FPassing clouds.3 mph88%30.07 "HgN/A
2:00 AM63 °FPassing clouds.2 mph88%30.09 "HgN/A
1:00 AM64 °FPassing clouds.2 mph83%30.09 "HgN/A
12:00 AM64 °FPassing clouds.3 mph78%30.09 "HgN/A
11:00 PM
Apr 17
66 °FPassing clouds.2 mph78%30.12 "HgN/A
10:00 PM64 °FPassing clouds.2 mph83%30.12 "HgN/A
9:00 PM64 °FPassing clouds.1 mph88%30.15 "HgN/A
8:00 PM64 °FPassing clouds.1 mph83%30.12 "HgN/A
7:00 PM63 °FPassing clouds.2 mph83%30.12 "HgN/A
6:00 PM64 °FClear.3 mph83%30.12 "Hg10 mi
Weather by CustomWeather, © 2014

See weather overview